Regional Weather Roundup
Issued by NWS

Home | Current Version | Previous Version | Graphics & Text | Print | Product List | Glossary On
Versions: 1 2 3 4 5 6 7 8 9 10 11 12 13 14 15 16 17 18 19 20 21 22 23 24 25 26 27 28 29 30 31 32 33 34 35 36 37 38 39 40 41 42 43 44 45 46 47 48 49 50
000
ASUS45 KABQ 261110
RWRNM
WEATHER ROUNDUP FOR NEW MEXICO
NATIONAL WEATHER SERVICE ALBUQUERQUE NM
500 AM MDT SAT JUL 26 2014

NOTE: "FAIR" MEANS FEW OR NO CLOUDS BELOW 12,000 FEET AGL WITH NO
       SIGNIFICANT WEATHER OR OBSTRUCTIONS TO VISION.

      THIS PRODUCT IS RELEASED AS TWO VERSIONS.  ONE VERSION NEAR
      THE TOP OF THE HOUR CONTAINING PRELIMINARY DATA FROM ALBUQUERQUE
      AND OTHER STATIONS.  A FINAL VERSION WITH ADDITIONAL DATA IS
      ISSUED ABOUT 10 MINUTES AFTER THE HOUR.

NMZ501-503-504-510>518-261200-
NORTHWEST PLATEAU/NORTHCENTRAL MOUNTAINS

CITY           SKY/WX    TMP DP  RH WIND       PRES   REMARKS
FARMINGTON     CLEAR     66  41  40 CALM      30.16R
LOS ALAMOS     CLEAR     70  44  38 NW3       30.30R
SANTA FE       CLEAR     64  48  56 N3        30.22R
TAOS           CLEAR     54  41  62 CALM      30.31R
ANGEL FIRE     FAIR      46  43  88 SE5       30.42R

$$
NMZ402-403-502-505>509-261200-
WESTCENTRAL MOUNTAINS/SOUTHWEST MOUNTAINS

CITY           SKY/WX    TMP DP  RH WIND       PRES   REMARKS
GALLUP         CLEAR     66  43  43 CALM      30.27S
GRANTS         MOCLDY    63  48  58 NW5       30.27R
SILVER CITY    PTCLDY    72  50  46 NW12      30.18S

$$
NMZ407-409-411-412-261200-
SOUTHERN DESERTS

CITY           SKY/WX    TMP DP  RH WIND       PRES   REMARKS
LORDSBURG      FAIR      70  54  56 W5        30.11S
DEMING         CLEAR     73  56  54 SW7       30.08R
LAS CRUCES     CLEAR     71  46  39 W5        30.08S
HOLLOMAN AFB   CLEAR     77  43  29 S7        30.05R
ALAMOGORDO     CLEAR     72  41  33 NE5       30.08R
T OR C         CLEAR     80  46  30 W9        30.09S

$$
NMZ519>523-261200-
CENTRAL VALLEYS/CENTRAL HIGHLANDS

CITY           SKY/WX    TMP DP  RH WIND       PRES   REMARKS
ALBUQUERQUE    PTCLDY    74  42  31 SE3       30.14R
MORIARTY ARPT  FAIR      55  47  76 NW5       30.23R
CLINES CORNERS CLEAR     65  38  36 W13       30.27R
BELEN          FAIR      75  43  31 S10       30.13S
SOCORRO        FAIR      71  39  31 W5        30.12R

$$
NMZ524>526-539-540-261200-
SOUTHCENTRAL MOUNTAINS

CITY           SKY/WX    TMP DP  RH WIND       PRES   REMARKS
RUIDOSO        CLEAR     66  43  42 SW8       30.28R

$$
NMZ527>531-261200-
NORTHEAST HIGHLANDS/NORTHEAST PLAINS

CITY           SKY/WX    TMP DP  RH WIND       PRES   REMARKS
LAS VEGAS      CLEAR     64  46  52 NW6       30.26R
RATON          CLEAR     62  53  72 E5        30.20R
CLAYTON        PTCLDY    71  46  40 S7        30.09R

$$
NMZ532>537-261200-
EASTCENTRAL PLAINS

CITY           SKY/WX    TMP DP  RH WIND       PRES   REMARKS
TUCUMCARI      PTCLDY    78  47  33 SW17G23   30.02R
CANNON AFB     PTCLDY    68  55  62 SW5       30.10R
CLOVIS AIRPORT NOT AVBL

$$
NMZ028-029-538-261200-
SOUTHEAST PLAINS

CITY           SKY/WX    TMP DP  RH WIND       PRES   REMARKS
ROSWELL        CLEAR     73  53  49 S8        30.03S
ARTESIA        CLEAR     73  55  53 S8        30.04R
CARLSBAD       CLEAR     75  54  47 S7        30.02R


$$



USA.gov is the U.S. government's official web portal to all federal, state and local government web resources and services.